Voltar ao catálogo

FENGYUN 1C DEB

AtivoPO
NORAD 29944·DEBRIS·🇨🇳 China

Lançado May 10, 1999 de Taiyuan Satellite Launch Center

Loading…

Próximas Passagens (próximas 24 horas)

TLE

AtualizadoSource: Space-Track

Época: Sep 13, 2026, 21:56 UTC

1 29944U 99025JS  26256.91438655  .00006645  00000-0  51480-3 0  9997
2 29944  99.0331 234.8680 0154901  72.3588 289.4475 14.92769456 45538

Acompanhe FENGYUN 1C DEB em tempo real com AllMySat

Download on the App Store